TimeEDT,TemperatureF,Dew PointF,Humidity,Sea Level PressureIn,VisibilityMPH,Wind Direction,Wind SpeedMPH,Gust SpeedMPH,PrecipitationIn,Events,Conditions,WindDirDegrees,DateUTC
12:53 AM,57.0,55.0,93,30.07,10.0,NE,5.8,-,N/A,,Partly Cloudy,50,2013-09-30 04:53:00
1:53 AM,57.0,55.0,93,30.07,10.0,North,5.8,-,N/A,,Partly Cloudy,360,2013-09-30 05:53:00
2:04 AM,59.0,57.2,94,30.07,10.0,NNE,8.1,-,N/A,,Mostly Cloudy,20,2013-09-30 06:04:00
2:13 AM,59.0,57.2,94,30.07,10.0,North,6.9,-,N/A,,Mostly Cloudy,10,2013-09-30 06:13:00
2:31 AM,59.0,57.2,94,30.07,10.0,NNE,8.1,-,N/A,,Overcast,20,2013-09-30 06:31:00
2:53 AM,59.0,57.0,93,30.06,10.0,NNE,8.1,-,N/A,,Overcast,30,2013-09-30 06:53:00
3:53 AM,59.0,57.0,93,30.07,10.0,NNE,11.5,-,N/A,,Overcast,30,2013-09-30 07:53:00
4:33 AM,57.2,55.4,94,30.06,10.0,NNE,6.9,-,N/A,,Scattered Clouds,20,2013-09-30 08:33:00
4:53 AM,59.0,55.9,90,30.06,10.0,NE,9.2,-,N/A,,Mostly Cloudy,40,2013-09-30 08:53:00
5:06 AM,59.0,57.2,94,30.05,10.0,NNE,8.1,-,N/A,,Mostly Cloudy,20,2013-09-30 09:06:00
5:53 AM,60.1,57.0,90,30.07,10.0,NNE,4.6,-,N/A,,Overcast,30,2013-09-30 09:53:00
6:53 AM,60.1,57.0,90,30.06,10.0,NNE,8.1,-,N/A,,Overcast,20,2013-09-30 10:53:00
7:22 AM,57.2,55.4,94,30.06,10.0,NNE,5.8,-,N/A,,Scattered Clouds,30,2013-09-30 11:22:00
7:53 AM,61.0,55.9,83,30.07,10.0,NE,9.2,-,N/A,,Clear,40,2013-09-30 11:53:00
8:53 AM,63.0,55.0,75,30.06,10.0,ENE,12.7,-,N/A,,Clear,60,2013-09-30 12:53:00
9:53 AM,66.0,54.0,65,30.05,10.0,NE,13.8,-,N/A,,Clear,40,2013-09-30 13:53:00
10:53 AM,66.9,55.0,66,30.04,10.0,NE,13.8,-,N/A,,Partly Cloudy,40,2013-09-30 14:53:00
11:53 AM,69.1,54.0,58,30.02,10.0,NE,12.7,-,N/A,,Clear,40,2013-09-30 15:53:00
12:53 PM,70.0,53.1,55,30.01,10.0,North,10.4,-,N/A,,Mostly Cloudy,10,2013-09-30 16:53:00
1:53 PM,69.1,53.1,57,30.00,10.0,NE,9.2,-,N/A,,Overcast,40,2013-09-30 17:53:00
2:53 PM,69.1,53.1,57,29.99,10.0,North,11.5,16.1,N/A,,Scattered Clouds,360,2013-09-30 18:53:00
3:53 PM,68.0,53.1,59,29.97,10.0,North,10.4,-,N/A,,Clear,10,2013-09-30 19:53:00
4:53 PM,66.0,53.1,63,29.98,10.0,NE,9.2,-,N/A,,Clear,40,2013-09-30 20:53:00
5:53 PM,63.0,53.1,70,29.98,10.0,NE,9.2,-,N/A,,Clear,40,2013-09-30 21:53:00
6:53 PM,57.9,53.1,84,29.98,10.0,NNE,8.1,-,N/A,,Clear,30,2013-09-30 22:53:00
7:53 PM,55.0,52.0,89,29.98,10.0,NNW,4.6,-,N/A,,Clear,330,2013-09-30 23:53:00
8:53 PM,51.1,48.9,92,29.98,10.0,NNW,3.5,-,N/A,,Clear,330,2013-10-01 00:53:00
9:48 PM,46.4,44.6,93,29.98,1.8,Calm,Calm,-,N/A,,Clear,0,2013-10-01 01:48:00
9:53 PM,48.0,46.0,93,29.98,1.2,Calm,Calm,-,N/A,,Clear,0,2013-10-01 01:53:00
9:59 PM,46.4,44.6,93,29.97,4.0,Calm,Calm,-,N/A,,Clear,0,2013-10-01 01:59:00
10:10 PM,44.6,42.8,93,29.97,1.8,Calm,Calm,-,N/A,,Clear,0,2013-10-01 02:10:00
10:26 PM,44.6,44.6,100,29.97,3.0,Calm,Calm,-,N/A,,Clear,0,2013-10-01 02:26:00
10:53 PM,43.0,42.1,97,29.97,7.0,Calm,Calm,-,N/A,,Clear,0,2013-10-01 02:53:00
11:33 PM,41.0,39.2,93,29.97,2.0,Calm,Calm,-,N/A,,Partly Cloudy,0,2013-10-01 03:33:00
11:35 PM,41.0,39.2,93,29.97,1.0,Calm,Calm,-,N/A,,Mist,0,2013-10-01 03:35:00
11:42 PM,42.8,39.2,87,29.96,0.5,WNW,3.5,-,N/A,Fog,Fog,300,2013-10-01 03:42:00
11:53 PM,42.1,41.0,96,29.96,0.5,NW,4.6,-,N/A,Fog,Fog,320,2013-10-01 03:53:00